sat.trackr.live / text

‹ back to catalog

STARLINK-32952

NORAD 63146 · 2025-043Q

PAYLOAD ACTIVE UNKNOWN

§ Identity

Operator
Country
US
Launch date
2025-03-03
Launch site
AFETR
Launch vehicle
Mass (kg)
RCS (m²)

Purposes: comms

External: N2YO · Heavens-Above · Gunter

§ Orbital elements

Epoch: 2026-05-24T20:45:47.638080Z

Period
94.27 min
Inclination
42.9998°
Eccentricity
0.0002134
Mean motion
15.27590207 rev/d
Perigee alt
481.6 km
Apogee alt
484.5 km
Semi-major
6,861.2 km
B*
5.7448e-4
RAAN
312.8315°
Arg perigee
247.9635°
Mean anomaly
112.0990°
Rev number
6,956

§ Raw data

STARLINK-329521 63146U 25043Q   26144.86513470  .00015585  00000+0  57448-3 0  99992 63146  42.9998 312.8315 0002134 247.9635 112.0990 15.27590207 69568

JSON: /api/v1/satellites/63146 · /tle

For live sub-satellite position, see the globe view (requires WebGL).

§ Visibility from observer

Set your observer location to see the next 7 days of passes ≥ 10°. The values pass through the URL so the page stays shareable.

No JS? Fill the form by hand. The geolocation button needs JavaScript.